When you browse on this site, cookies collect data to enhance your experience and personalize the content and advertising you see.
Visit our Privacy Policy to learn more. By continuing to use the site, you agree to this use of cookies and data.
  • In Portugal
  • List of Countries
  • For 7 days
  • Water Temperature
  • Satellite Maps
  • Weather Map
  • Weather Widgets
  • user-avatar
    Login

    Hourly Weather Banja Luka

    Today, 17 January, Thursday

    Time Temperature Precipitation Wind Pressure Humidity
    00:00 -1°C° 0 mm 3 mps 715 mmHg 91%
    01:00 0°C° 0 mm 3 mps 714 mmHg 91%
    02:00 0°C° 0 mm 3 mps 714 mmHg 91%
    03:00 0°C° 0 mm 3 mps 714 mmHg 91%
    04:00 0°C° 0 mm 3 mps 714 mmHg 91%
    05:00 0°C° 0 mm 3 mps 714 mmHg 91%
    06:00 0°C° 0 mm 3 mps 714 mmHg 91%
    07:00 +1°C° 0 mm 2 mps 714 mmHg 91%
    08:00 +2°C° 0 mm 2 mps 714 mmHg 88%
    09:00 +3°C° 0 mm 2 mps 714 mmHg 86%
    10:00 +3°C° 0 mm 3 mps 714 mmHg 84%
    11:00 +4°C° 0 mm 3 mps 714 mmHg 83%
    12:00 +4°C° 0 mm 3 mps 714 mmHg 81%
    13:00 +5°C° 0 mm 3 mps 714 mmHg 80%
    14:00 +4°C° 0 mm 3 mps 714 mmHg 82%
    15:00 +4°C° 0 mm 3 mps 713 mmHg 84%
    16:00 +3°C° 0 mm 3 mps 713 mmHg 86%
    17:00 +3°C° 0 mm 3 mps 713 mmHg 85%
    18:00 +3°C° 0 mm 3 mps 712 mmHg 85%
    19:00 +2°C° 0 mm 3 mps 712 mmHg 84%
    20:00 +1°C° 0 mm 4 mps 712 mmHg 84%
    21:00 +3°C° 0 mm 4 mps 712 mmHg 84%
    22:00 +3°C° 0 mm 4 mps 712 mmHg 84%
    23:00 +3°C° 0 mm 4 mps 712 mmHg 83%

    Tomorrow, 18 January, Friday

    Time Temperature Precipitation Wind Pressure Humidity
    00:00 +3°C° 0 mm 4 mps 712 mmHg 83%
    01:00 +3°C° 0 mm 4 mps 711 mmHg 83%
    02:00 +3°C° 0 mm 3 mps 711 mmHg 84%
    03:00 +3°C° 0 mm 3 mps 710 mmHg 85%
    04:00 +3°C° 0 mm 3 mps 710 mmHg 85%
    05:00 +3°C° 0 mm 3 mps 710 mmHg 87%
    06:00 +3°C° 0 mm 3 mps 710 mmHg 88%
    07:00 +4°C° 0 mm 2 mps 710 mmHg 89%
    08:00 +5°C° 0.1 mm 2 mps 711 mmHg 90%
    09:00 +5°C° 0.1 mm 2 mps 711 mmHg 91%
    10:00 +5°C° 0.1 mm 2 mps 711 mmHg 91%
    11:00 +5°C° 1.1 mm 2 mps 712 mmHg 93%
    12:00 +4°C° 1.1 mm 2 mps 712 mmHg 95%
    13:00 +3°C° 1.1 mm 3 mps 712 mmHg 97%
    14:00 +2°C° 1.9 mm 2 mps 712 mmHg 97%
    15:00 +1°C° 1.9 mm 2 mps 712 mmHg 96%
    16:00 -1°C° 1.9 mm 2 mps 713 mmHg 96%
    17:00 -1°C° 1 mm 2 mps 713 mmHg 96%
    18:00 0°C° 1 mm 1 mps 713 mmHg 97%
    19:00 0°C° 1 mm 1 mps 714 mmHg 97%
    20:00 0°C° 1.2 mm 1 mps 714 mmHg 97%
    21:00 0°C° 1.2 mm 1 mps 714 mmHg 97%
    22:00 0°C° 1.2 mm 1 mps 714 mmHg 98%
    23:00 0°C° 0.7 mm 1 mps 714 mmHg 98%

    Day after tomorrow, 19 January, Saturday

    Time Temperature Precipitation Wind Pressure Humidity
    00:00 0°C° 0.7 mm 1 mps 714 mmHg 98%
    01:00 -1°C° 0.7 mm 1 mps 714 mmHg 98%
    02:00 -1°C° 0.4 mm 1 mps 714 mmHg 98%
    03:00 -1°C° 0.4 mm 1 mps 714 mmHg 98%
    04:00 -1°C° 0.4 mm 1 mps 714 mmHg 97%
    05:00 -1°C° 0.3 mm 1 mps 714 mmHg 97%
    06:00 -1°C° 0.3 mm 1 mps 714 mmHg 97%
    07:00 -1°C° 0.3 mm 1 mps 714 mmHg 97%
    08:00 -1°C° 0.3 mm 1 mps 714 mmHg 96%
    09:00 -1°C° 0.3 mm 1 mps 714 mmHg 95%
    10:00 0°C° 0.3 mm 1 mps 714 mmHg 94%
    11:00 0°C° 0.4 mm 1 mps 714 mmHg 94%
    12:00 0°C° 0.4 mm 1 mps 713 mmHg 94%
    13:00 0°C° 0.4 mm 1 mps 713 mmHg 94%
    14:00 0°C° 0.4 mm 1 mps 713 mmHg 95%
    15:00 0°C° 0.4 mm 1 mps 713 mmHg 96%
    16:00 0°C° 0.4 mm 1 mps 712 mmHg 96%
    17:00 0°C° 0.1 mm 1 mps 712 mmHg 97%
    18:00 -1°C° 0.1 mm 1 mps 712 mmHg 97%
    19:00 -2°C° 0.1 mm 0 mps 712 mmHg 98%
    20:00 -2°C° 0 mm 0 mps 712 mmHg 97%
    21:00 -3°C° 0 mm 0 mps 712 mmHg 97%
    22:00 -3°C° 0 mm 0 mps 712 mmHg 96%
    23:00 -3°C° 0 mm 0 mps 712 mmHg 96%

    20 January, Sunday

    Time Temperature Precipitation Wind Pressure Humidity
    00:00 -3°C° 0 mm 0 mps 712 mmHg 95%
    01:00 -3°C° 0 mm 0 mps 712 mmHg 95%
    02:00 -3°C° 0 mm 0 mps 712 mmHg 95%
    03:00 -3°C° 0 mm 0 mps 711 mmHg 95%
    04:00 -3°C° 0 mm 0 mps 711 mmHg 95%
    05:00 -3°C° 0 mm 0 mps 711 mmHg 95%
    06:00 -2°C° 0 mm 0 mps 712 mmHg 95%
    07:00 -2°C° 0 mm 0 mps 712 mmHg 95%
    08:00 -1°C° 0 mm 0 mps 712 mmHg 95%
    09:00 0°C° 0 mm 0 mps 712 mmHg 96%
    10:00 +2°C° 0 mm 0 mps 713 mmHg 96%
    11:00 +2°C° 0 mm 0 mps 713 mmHg 97%
    12:00 +2°C° 0 mm 0 mps 713 mmHg 97%
    13:00 +3°C° 0 mm 1 mps 713 mmHg 98%
    14:00 +3°C° 0 mm 1 mps 713 mmHg 98%
    15:00 +2°C° 0 mm 0 mps 713 mmHg 98%
    16:00 +2°C° 0 mm 0 mps 713 mmHg 98%
    17:00 +1°C° 0 mm 0 mps 713 mmHg 98%
    18:00 0°C° 0 mm 0 mps 713 mmHg 97%
    19:00 -1°C° 0 mm 0 mps 713 mmHg 97%
    20:00 -1°C° 0 mm 0 mps 714 mmHg 96%
    21:00 -1°C° 0 mm 0 mps 714 mmHg 96%
    22:00 -1°C° 0 mm 0 mps 715 mmHg 96%
    23:00 -2°C° 0 mm 0 mps 715 mmHg 96%

    21 January, Monday

    Time Temperature Precipitation Wind Pressure Humidity
    00:00 -2°C° 0 mm 0 mps 715 mmHg 96%
    01:00 -2°C° 0 mm 0 mps 715 mmHg 96%
    02:00 -2°C° 0 mm 0 mps 715 mmHg 96%
    03:00 -2°C° 0 mm 0 mps 715 mmHg 97%
    04:00 -2°C° 0 mm 0 mps 715 mmHg 97%
    05:00 -2°C° 0 mm 0 mps 715 mmHg 97%
    06:00 -3°C° 0 mm 0 mps 715 mmHg 97%
    07:00 -3°C° 0 mm 0 mps 715 mmHg 98%
    08:00 -1°C° 0 mm 1 mps 715 mmHg 97%
    09:00 0°C° 0 mm 1 mps 716 mmHg 96%
    10:00 +1°C° 0 mm 1 mps 716 mmHg 95%
    11:00 +1°C° 0.1 mm 1 mps 716 mmHg 94%
    12:00 +1°C° 0.1 mm 1 mps 715 mmHg 93%
    13:00 +2°C° 0.1 mm 1 mps 715 mmHg 92%
    14:00 +1°C° 0.1 mm 1 mps 715 mmHg 93%
    15:00 +1°C° 0.1 mm 1 mps 715 mmHg 93%
    16:00 0°C° 0.1 mm 1 mps 714 mmHg 94%
    17:00 0°C° 0 mm 1 mps 714 mmHg 95%
    18:00 -1°C° 0 mm 1 mps 714 mmHg 96%
    19:00 -2°C° 0 mm 1 mps 714 mmHg 97%
    20:00 -2°C° 0.2 mm 1 mps 714 mmHg 97%
    21:00 -2°C° 0.2 mm 1 mps 713 mmHg 97%
    22:00 -2°C° 0.2 mm 1 mps 713 mmHg 97%
    23:00 -3°C° 0.2 mm 1 mps 713 mmHg 97%

    22 January, Tuesday

    Time Temperature Precipitation Wind Pressure Humidity
    00:00 -3°C° 0.2 mm 1 mps 712 mmHg 97%
    01:00 -3°C° 0.2 mm 1 mps 712 mmHg 97%
    02:00 -3°C° 0.7 mm 1 mps 711 mmHg 97%
    03:00 -3°C° 0.7 mm 1 mps 711 mmHg 97%
    04:00 -3°C° 0.7 mm 1 mps 710 mmHg 97%
    05:00 -3°C° 0.6 mm 1 mps 710 mmHg 97%
    06:00 -3°C° 0.6 mm 1 mps 710 mmHg 97%
    07:00 -4°C° 0.6 mm 1 mps 709 mmHg 97%
    08:00 -3°C° 0.3 mm 1 mps 709 mmHg 96%
    09:00 -3°C° 0.3 mm 1 mps 709 mmHg 95%
    10:00 -2°C° 0.3 mm 1 mps 709 mmHg 95%
    11:00 -2°C° 0.2 mm 1 mps 709 mmHg 94%
    12:00 -1°C° 0.2 mm 1 mps 708 mmHg 93%
    13:00 -1°C° 0.2 mm 1 mps 708 mmHg 92%
    14:00 -1°C° 0.2 mm 1 mps 707 mmHg 93%
    15:00 -1°C° 0.2 mm 1 mps 707 mmHg 94%
    16:00 -1°C° 0.2 mm 1 mps 706 mmHg 95%
    17:00 -2°C° 0 mm 1 mps 706 mmHg 96%
    18:00 -3°C° 0 mm 1 mps 706 mmHg 97%
    19:00 -5°C° 0 mm 0 mps 705 mmHg 98%
    20:00 -5°C° 0 mm 0 mps 705 mmHg 97%
    21:00 -5°C° 0 mm 0 mps 705 mmHg 97%
    22:00 -6°C° 0 mm 0 mps 705 mmHg 97%
    23:00 -6°C° 0 mm 0 mps 705 mmHg 96%
    Show more